This is the latest recevied weather packets stored in our database for station/object K9YK-13. If no packets are shown the sender has not sent any weather packets the latest 10 day(s).
| Time | Temp. | Humidity | Pressure | Rain* | Wind** | Luminosity | Snow |
|---|---|---|---|---|---|---|---|
| 1777561572 | 12.22° C | 63% | 0 hPa | 0 mm | - | - | - |
| 1777561272 | 12.78° C | 71% | 0 hPa | 0 mm | - | - | - |
| 1777560972 | 11.11° C | 74% | 0 hPa | 0 mm | - | - | - |
| 1777560672 | 12.22° C | 72% | 0 hPa | 0 mm | - | - | - |
| 1777560373 | 13.89° C | 68% | 0 hPa | 0 mm | - | - | - |
| 1777560072 | 13.89° C | 66% | 0 hPa | 0 mm | - | - | - |
| 1777559772 | 13.33° C | 71% | 0 hPa | 0 mm | - | - | - |
| 1777559472 | 12.78° C | 77% | 0 hPa | 0 mm | - | - | - |
| 1777559172 | 12.22° C | 80% | 0 hPa | 0 mm | - | - | - |
| 1777558872 | 11.11° C | 81% | 0 hPa | 0 mm | - | - | - |
| 1777558572 | 11.11° C | 80% | 0 hPa | 0 mm | - | - | - |
| 1777558272 | 12.22° C | 82% | 0 hPa | 0 mm | - | - | - |
| 1777557972 | 11.11° C | 84% | 0 hPa | 0 mm | - | - | - |
| 1777557672 | 11.11° C | 86% | 0 hPa | 0 mm | - | - | - |
| 1777557372 | 10° C | 90% | 0 hPa | 0 mm | - | - | - |
| 1777557072 | 10° C | 85% | 0 hPa | 0 mm | - | - | - |
| 1777556773 | 11.11° C | 90% | 0 hPa | 0 mm | - | - | - |
| 1777556472 | 10.56° C | 91% | 0 hPa | 0 mm | - | - | - |
| 1777556173 | 10° C | 94% | 0 hPa | 0 mm | - | - | - |
| 1777555873 | 8.89° C | 96% | 0 hPa | 0 mm | - | - | - |
| 1777555572 | 8.33° C | 94% | 0 hPa | 0 mm | - | - | - |
| 1777555272 | 9.44° C | 97% | 0 hPa | 0 mm | - | - | - |
| 1777554972 | 8.33° C | 98% | 0 hPa | 0 mm | - | - | - |
| 1777554672 | 7.78° C | 98% | 0 hPa | 0 mm | - | - | - |
| 1777554372 | 6.11° C | 98% | 0 hPa | 0 mm | - | - | - |
* Rain latest hour (hover to see other rain measurements)
** Current wind speed in m/s (hover to see current wind gust speed)